Theta_e
352 358 366 366 367 365 363 362 361 360 359 359 360 360 361 360 360 359 359 360 361 363 363 362 362 362 363 363 363 364 364 366 364 362 360 358 358 360 363 364 363 356 363
352 358 367 366 366 365 364 362 362 362 362 360 360 360 360 360 359 359 359 361 361 363 363 362 362 363 362 363 363 363 362 366 365 362 361 361 360 361 363 363 360 358 362
352 357 359 365 366 364 365 362 362 361 361 361 360 360 360 359 359 358 358 362 360 362 363 363 363 363 362 362 362 362 362 364 363 365 364 353 356 360 361 361 359 359 361
351 354 358 364 366 364 365 363 362 363 361 361 360 360 360 360 360 359 359 361 361 363 363 363 363 363 363 363 362 362 362 361 361 360 351 350 353 361 362 361 360 361 360
350 353 360 366 366 365 365 363 363 362 360 360 360 359 359 361 361 360 361 362 361 362 363 362 362 363 362 362 362 361 361 360 359 358 354 353 352 358 360 360 359 359 362
349 355 363 365 363 364 363 363 362 361 362 362 361 360 358 360 362 362 363 363 363 362 363 363 362 363 363 362 361 359 355 354 358 355 352 355 350 358 359 359 360 360 360
352 355 357 364 365 363 364 363 362 362 362 362 363 361 360 362 362 363 364 364 364 363 362 363 363 363 362 361 360 357 357 359 356 354 354 353 355 362 359 359 359 360 359
351 351 352 362 365 363 362 361 363 362 362 362 362 362 362 363 363 364 364 364 363 364 363 363 363 363 363 361 360 358 357 358 357 355 353 352 361 362 359 360 359 360 359
345 350 350 354 361 364 363 360 361 362 362 361 362 363 363 363 363 364 364 364 363 363 363 362 362 362 362 362 359 357 355 361 357 354 352 355 362 361 360 360 358 358 359
347 348 351 354 355 356 355 361 362 362 362 361 361 362 362 363 362 361 363 364 363 363 362 361 361 361 362 362 359 358 357 360 350 354 355 357 362 362 360 360 358 357 353
343 346 351 350 350 351 354 357 359 362 361 362 361 362 361 363 362 360 363 365 363 363 362 360 360 361 358 359 359 358 356 352 351 350 354 360 363 361 361 359 359 359 359
339 342 350 348 349 353 353 357 360 355 359 365 367 360 364 358 352 357 360 363 361 360 360 358 358 360 355 352 352 358 357 351 351 342 354 362 363 360 361 361 359 360 359
341 342 347 353 354 354 355 358 360 356 359 361 368 365 355 361 355 356 361 360 360 357 354 355 354 351 342 345 352 351 355 352 350 352 356 362 362 360 359 358 359 360 359
340 340 345 351 358 360 351 354 356 351 354 358 355 358 359 362 359 359 357 358 355 349 342 351 355 348 340 343 352 348 352 351 351 351 357 362 361 359 359 359 359 359 359
337 340 343 349 357 359 367 365 357 354 354 357 362 363 360 350 348 353 355 355 356 353 353 353 357 355 350 349 349 351 350 350 350 351 352 358 360 361 358 358 359 359 358
337 336 341 344 359 358 364 366 364 361 355 357 357 364 364 354 351 353 352 347 358 355 355 352 361 351 349 350 352 348 348 350 351 353 352 350 357 360 360 358 358 358 358
342 339 342 345 351 359 362 363 361 362 354 354 355 366 365 357 357 354 351 360 355 358 359 356 358 351 350 351 352 348 345 350 352 349 351 351 353 357 357 360 360 360 358
339 345 344 342 348 351 357 359 362 360 359 363 357 365 366 364 358 351 350 350 355 356 359 356 356 356 350 352 346 350 348 353 351 348 347 350 348 345 353 355 358 361 359
340 346 346 350 346 351 357 357 357 359 362 359 363 364 363 361 360 353 350 351 351 352 353 354 353 356 349 354 350 351 355 350 350 351 349 347 350 349 348 355 358 360 358
344 343 345 348 355 358 356 356 361 362 365 361 366 362 355 361 360 357 355 351 348 349 350 351 350 349 354 353 348 348 354 353 348 347 348 348 347 348 349 349 354 355 360
343 341 340 347 358 359 352 353 354 356 361 359 359 368 359 364 363 360 357 353 350 352 347 351 353 354 347 347 348 348 353 347 349 351 348 349 348 350 347 349 349 349 355
341 343 343 347 356 353 356 356 357 357 362 360 362 361 368 364 366 363 362 358 354 354 349 352 349 354 352 352 342 345 335 345 347 349 350 348 348 349 349 349 348 347 350
340 342 344 352 353 358 358 357 362 365 367 355 364 365 367 369 366 366 362 360 359 358 351 352 352 350 349 355 356 346 339 337 341 345 348 349 347 347 350 348 351 349 350
340 342 347 352 354 357 364 362 360 355 354 356 360 362 363 367 367 367 367 362 364 359 355 352 352 350 349 348 351 353 353 344 338 335 350 348 350 346 348 350 347 351 353
341 342 347 350 352 357 360 364 362 359 360 359 360 361 364 368 366 365 367 366 364 361 357 355 352 349 351 350 348 351 352 350 346 339 335 338 344 346 350 349 350 350 353
341 341 345 351 355 358 364 363 362 363 361 361 359 355 356 363 365 366 365 366 365 361 360 355 355 351 352 353 351 353 349 347 346 344 340 342 340 342 349 352 350 352 350
Wind_Speed
12 10 11 11 12 13 13 13 11 10 9 9 9 9 9 9 10 10 10 10 10 10 13 12 14 15 15 17 17 17 18 17 18 18 19 18 15 12 12 19 18 17 18
17 13 12 13 13 13 13 12 12 9 8 8 8 7 8 8 8 8 10 11 11 10 14 12 14 16 15 15 16 16 16 15 17 19 19 18 14 14 16 21 18 14 18
18 15 13 13 14 13 12 12 10 9 7 7 7 6 7 7 7 7 9 10 11 13 14 14 13 16 16 14 14 14 13 13 15 19 18 11 11 16 17 19 16 16 17
18 16 14 12 14 13 11 11 9 8 6 6 6 6 7 8 8 8 9 11 13 14 14 14 13 14 14 14 11 11 11 11 11 11 6 10 12 16 15 15 15 15 15
17 17 14 13 12 12 11 10 9 8 6 7 6 5 6 10 11 11 10 12 14 15 13 13 13 14 14 12 10 9 9 8 7 5 6 9 9 12 14 13 13 12 14
21 19 14 13 12 10 11 11 8 8 8 8 7 6 9 13 13 13 12 14 15 14 14 13 13 14 13 11 9 6 2 2 5 10 10 13 10 13 11 14 14 15 14
22 18 15 12 11 10 10 10 9 9 9 8 10 13 15 15 14 13 14 14 14 14 13 14 13 13 13 10 8 6 1 5 8 8 10 12 9 12 14 14 13 13 13
20 19 15 12 11 11 9 10 11 9 10 10 10 11 13 14 13 14 14 15 15 15 14 13 13 13 13 10 7 4 3 6 11 9 11 9 10 12 14 14 13 13 12
19 18 14 13 10 13 10 10 9 11 9 8 10 10 11 11 11 12 13 15 14 13 13 11 11 10 12 11 7 4 3 8 4 7 11 6 12 13 14 14 14 13 12
19 17 14 11 10 10 8 8 8 9 9 9 8 9 10 10 9 8 8 11 14 14 12 10 9 11 10 9 7 5 4 8 5 2 9 6 12 15 15 14 14 13 12
14 17 17 14 12 10 12 8 7 8 8 7 8 8 8 5 7 10 7 8 11 11 10 8 9 10 10 8 5 6 3 5 7 5 6 10 10 15 15 14 12 12 11
10 15 7 16 8 7 9 10 8 8 7 5 3 6 3 6 10 8 9 9 10 9 9 6 7 8 8 4 5 6 3 9 5 5 6 11 11 13 14 15 14 13 12
5 6 11 4 9 7 6 6 3 2 4 6 5 6 8 4 10 9 4 4 4 6 2 6 6 11 9 5 4 9 4 4 7 5 9 14 14 13 14 14 13 13 12
10 8 11 13 5 4 4 6 7 3 2 4 4 5 3 2 6 5 5 5 3 7 10 4 4 15 16 9 15 9 9 8 6 6 10 16 15 15 13 14 14 12 13
12 11 7 8 6 4 3 2 4 5 3 4 6 5 4 6 5 0 2 4 2 7 6 7 3 4 9 12 12 8 8 9 10 6 5 13 11 12 14 13 13 12 11
14 14 16 11 7 9 3 3 0 3 4 4 3 5 7 6 7 2 2 3 2 2 4 3 3 6 3 4 7 3 3 2 8 9 6 7 11 10 12 12 12 13 12
5 10 15 12 7 3 4 2 3 3 4 3 4 5 7 8 6 4 3 1 0 4 6 4 3 6 4 7 8 8 7 7 8 9 8 6 7 11 12 12 12 12 12
4 3 8 9 14 11 5 2 3 5 1 4 3 2 7 7 7 6 4 3 1 3 5 5 2 1 1 5 4 4 5 2 5 5 7 8 7 6 9 9 10 12 13
10 4 4 6 12 12 9 5 6 7 3 3 3 4 6 9 9 7 5 4 4 3 5 4 4 1 2 3 4 3 4 5 5 1 2 8 8 8 4 11 11 11 14
10 7 6 6 5 7 6 7 6 4 3 3 4 3 8 4 9 8 6 6 4 2 5 5 6 4 3 2 2 0 4 6 8 8 6 8 7 8 6 8 6 8 13
11 12 12 11 7 3 3 6 4 4 5 4 5 6 6 6 9 9 7 8 6 5 7 5 4 5 2 4 3 2 3 7 8 8 9 11 11 10 10 8 7 6 8
17 14 12 12 6 5 4 2 3 4 3 4 4 7 8 9 8 8 8 9 9 7 8 8 6 4 5 8 3 1 1 2 4 9 8 8 13 11 10 11 11 10 9
18 17 17 12 9 9 7 5 4 3 4 2 3 3 5 8 7 6 8 7 9 8 6 4 4 7 5 2 3 5 3 4 2 2 6 6 9 10 10 12 10 10 11
19 18 16 14 13 10 10 6 7 6 5 5 5 5 6 8 10 10 8 8 8 5 8 6 3 8 6 4 3 5 3 5 1 3 2 2 7 4 11 9 11 9 9
19 18 17 17 16 12 11 9 5 7 5 7 6 5 6 9 8 7 10 9 8 6 7 6 8 9 6 4 4 4 4 5 8 4 3 2 1 6 6 9 6 7 8
18 19 16 18 15 15 11 13 10 7 7 5 3 6 6 4 7 8 9 9 8 7 7 7 7 7 8 7 6 4 4 3 4 4 4 6 9 13 7 8 8 9 10
Wind_Direction
124 119 118 122 124 119 116 112 111 114 112 110 103 102 101 94 88 85 92 104 104 108 107 106 96 93 92 91 92 93 97 101 101 101 96 93 89 87 103 104 97 89 87
127 118 115 116 116 114 112 112 112 114 108 113 113 110 106 103 96 88 95 111 103 112 113 110 107 108 101 103 104 106 109 110 111 104 101 93 81 74 82 83 88 88 86
125 125 115 116 115 113 114 113 116 117 118 122 119 119 117 117 108 95 103 113 115 117 118 115 114 114 111 111 109 117 120 127 131 134 128 99 92 91 86 91 95 88 85
132 125 123 118 115 117 118 114 116 108 105 97 119 132 136 129 124 111 114 114 110 115 119 116 114 107 109 112 122 121 126 134 148 160 92 106 96 94 93 97 97 97 95
140 123 117 114 114 122 121 113 109 103 99 98 107 113 141 135 130 118 112 111 116 118 124 122 117 115 114 118 124 130 145 161 172 203 116 110 97 101 104 107 102 108 98
130 116 120 122 125 123 118 106 104 91 97 91 82 80 127 138 127 124 120 110 117 119 119 118 111 111 117 125 137 135 134 212 241 105 94 87 93 108 111 96 102 103 99
110 125 123 125 123 117 113 107 94 85 88 95 86 86 109 129 130 132 125 120 120 123 125 126 124 122 125 131 139 155 122 346 91 90 102 101 106 106 103 103 105 105 106
129 124 130 126 125 117 119 104 95 92 93 98 102 105 116 127 134 131 135 131 125 124 132 131 129 132 135 140 160 162 84 9 88 89 90 99 117 116 112 108 112 109 110
134 123 130 131 128 118 118 115 108 95 94 107 119 121 126 132 133 142 128 127 126 126 130 127 140 138 143 149 175 189 127 80 111 107 107 102 115 116 115 116 113 112 112
129 139 139 134 158 139 141 114 117 111 114 129 136 142 143 134 130 125 130 129 133 133 131 135 140 151 143 164 173 212 201 152 84 121 96 110 124 120 118 120 117 117 119
146 146 141 158 166 153 131 143 150 146 141 150 158 168 155 162 151 141 139 146 132 132 136 146 141 147 147 179 188 240 249 61 80 78 102 119 129 122 121 118 115 115 119
147 154 118 155 153 201 149 164 180 169 172 192 180 164 157 148 91 293 159 156 146 146 152 173 164 157 66 7 354 277 278 134 109 133 119 130 131 129 123 123 125 124 122
85 102 108 98 179 90 160 179 143 344 169 173 182 143 160 209 140 197 153 162 132 171 203 188 195 80 111 245 7 261 268 130 149 143 139 147 138 137 131 127 129 126 128
156 162 135 198 134 154 205 141 163 173 251 154 167 145 98 206 139 156 166 148 108 100 254 284 154 147 170 154 220 220 176 169 128 138 162 151 147 142 137 136 134 135 137
194 168 184 156 135 146 156 339 128 150 241 168 157 161 147 63 5 96 104 94 85 154 223 281 206 139 149 178 209 250 167 141 155 136 146 143 148 146 145 145 142 141 147
185 179 180 207 138 138 207 338 185 179 244 208 122 170 116 132 184 136 105 79 296 235 262 272 118 98 3 246 115 250 244 48 154 142 149 157 156 147 143 154 157 155 160
185 207 146 147 148 205 146 305 258 292 217 116 114 178 123 139 151 116 57 180 319 302 289 280 108 120 156 262 146 189 186 209 161 149 154 156 163 160 152 158 162 166 173
148 236 136 175 171 188 173 257 296 285 9 98 31 210 121 131 125 121 142 267 281 281 317 347 208 81 277 192 208 199 121 285 109 153 150 164 168 165 171 179 179 171 170
156 192 268 270 179 160 155 207 245 244 216 184 143 194 145 151 143 143 170 202 280 324 303 304 292 110 235 297 167 164 160 104 77 315 165 181 179 174 173 177 184 180 178
157 190 225 233 223 145 157 214 217 254 176 239 184 146 121 222 154 155 176 178 210 265 288 288 299 205 216 263 273 119 165 140 153 199 210 193 191 170 175 159 183 184 188
180 195 205 229 161 166 176 208 207 229 207 199 222 170 169 193 154 163 177 177 188 190 245 277 276 251 60 281 178 244 249 170 200 185 194 196 186 177 187 178 180 186 188
196 200 202 222 167 220 202 216 190 212 236 225 171 187 184 144 158 171 185 182 187 190 215 232 255 275 211 204 153 143 39 279 192 210 199 173 180 181 190 189 186 164 175
196 190 199 178 195 203 210 204 209 246 234 274 215 162 174 165 169 176 192 179 183 181 190 207 240 249 250 252 260 200 163 215 96 225 193 160 219 173 189 186 194 180 172
189 192 192 172 200 207 210 231 209 202 197 244 229 223 193 181 178 186 192 184 180 184 178 191 203 269 235 229 304 255 248 112 87 270 274 195 208 187 173 173 182 187 185
184 191 182 183 193 205 196 223 218 237 205 217 217 218 195 182 182 191 187 189 180 198 185 186 157 203 236 227 228 248 241 159 186 126 246 284 63 332 189 180 158 167 155
183 192 191 183 188 191 200 196 228 257 239 263 272 325 207 232 182 181 218 192 183 194 176 196 177 214 224 209 223 276 239 162 233 198 190 210 178 220 237 176 176 177 186